Regional Weather Roundup
Issued by NWS Wakefield, VA

Home | Current Version | Previous Version | Text Only | Print | Product List | Glossary On
Versions: 1 2 3 4 5 6 7 8 9 10 11 12 13 14 15 16 17 18 19 20 21 22 23 24 25 26 27 28 29 30 31 32 33 34 35 36 37 38 39 40 41 42 43 44 45 46 47 48 49 50
131
ASUS41 KAKQ 251115
RWRAKQ

REGIONAL WEATHER ROUNDUP
NATIONAL WEATHER SERVICE WAKEFIELD VA
700 AM EDT SUN JUN 25 2017

Note: "fair" indicates few or no clouds below 12,000 feet with no
significant weather and/or obstructions to visibility. * = Denotes
station may not report precipitation (e.g., rain,snow,etc.),
thunder or fog.

VAZ042-051-052>054-056-251200-
NORTHERN VIRGINIA

CITY           SKY/WX    TMP DP  RH WIND       PRES   REMARKS
WASH NATIONAL  PTSUNNY   75  61  61 NW6       30.01R
DULLES         PTSUNNY   66  62  87 SW3       30.02R
FORT BELVOIR   MOSUNNY   67  63  89 CALM      30.01R
QUANTICO       MOSUNNY   69  64  84 NW7       30.02R
FREDERICKSBRG* PTSUNNY   68  64  88 CALM      30.01R
STAFFORD*      PTSUNNY   64  64 100 CALM      30.06R
WARRENTON      PTSUNNY   65  62  90 CALM      30.02R
CULPEPER*      MOSUNNY   63  63  99 CALM      30.04R
MANASSAS*      PTSUNNY   64  63  94 CALM      30.03R
LEESBURG*      PTSUNNY  N/A N/A N/A CALM      30.03R
WINCHESTER     CLOUDY    66  55  68 W3        30.04R
FRONT ROYAL*   MOSUNNY   63  59  88 S5        30.04R
LURAY*         CLOUDY    61  59  94 CALM      30.06R
$$

VAZ048-049-060>072-079>083-251200-
CENTRAL AND SOUTH CENTRAL VIRGINIA

CITY           SKY/WX    TMP DP  RH WIND       PRES   REMARKS
RICHMOND       PTSUNNY   72  69  90 NW6       30.01R
CHESTERFIELD*  FAIR      70  66  87 NW5       30.02R
PETERSBURG*    MOSUNNY   70  66  88 W3        30.02R
HANOVER        SUNNY     70  66  87 CALM      30.03R
TAPPAHANNOCK*  MOSUNNY   72  67  84 CALM      30.01S
QUINTON*       CLOUDY    71  71 100 NW5       30.00R
CHARLOTTSVILLE MOSUNNY   68  59  73 W5        30.04R
GORDONSVILLE*  MOSUNNY   62  61  95 CALM      30.03R
ORANGE*        MOSUNNY   63  59  88 CALM      30.03R
LOUISA*        MOSUNNY   66  64  94 CALM      30.02R
BUMPASS*       CLOUDY    66  66 100 CALM      30.03R
FARMVILLE*     PTSUNNY   66  61  82 W3        30.03R
CREWE*         FAIR      67  62  86 NW3       30.02S
FORT PICKETT*  FAIR     N/A N/A N/A W6        30.03R
CHASE CITY*    FAIR      68  67  99 CALM      30.04R
CLARKSVILLE*   FAIR      68  68 100 CALM      30.04R
SOUTH HILL*    MOSUNNY   70  70 100 CALM      30.09R
LAWRENCEVILLE* FAIR      70  69  97 CALM      30.02R
EMPORIA*       SUNNY     72  70  94 CALM      30.03R
$$

VAZ088>098-251200-
SOUTHEAST VIRGINIA

CITY           SKY/WX    TMP DP  RH WIND       PRES   REMARKS
NORFOLK        MOSUNNY   75  72  90 SW7       30.00R
VIRGINIA BEACH PTSUNNY   72  70  93 SW6       29.99R
NORFOLK NAVAL  PTSUNNY   75  71  87 SW5       30.01S
WEST POINT*    MOSUNNY   73  72  94 CALM      30.01S
SALUDA*        FAIR      73  73  98 CALM      29.99S
NEWPORT NEWS   CLOUDY    75  70  84 W8        30.00
LANGLEY AFB    LGT RAIN  75  72  88 SW9       29.99S
FORT EUSTIS    PTSUNNY   75  71  87 W6        29.98R
WILLIAMSBURG*  MOSUNNY   73  73 100 CALM      30.00S
HR EXEC AP*    CLOUDY    72  70  94 W3        29.98S
FRANKLIN*      PTSUNNY   72  70  94 CALM      30.01S
US460-WAKEFLD  MOSUNNY   72  71  97 CALM      30.00R
$$

VAZ020-022-025-037-045-251200-
WEST CENTRAL AND SOUTHWEST VIRGINIA

CITY           SKY/WX    TMP DP  RH WIND       PRES   REMARKS
STAUNTON*      PTSUNNY   56  55  96 CALM      30.10R
WAYNESBORO*    PTSUNNY   62  58  84 W3        30.09R
HOT SPRINGS VA SUNNY     55  52  88 CALM      30.17S
LYNCHBURG      MOSUNNY   62  60  93 CALM      30.07R
DANVILLE       CLOUDY    66  66 100 W6        30.06R FOG
SOUTH BOSTON*  PTSUNNY   68  67  95 CALM      30.05R
MARTINSVILLE   MOCLDY    62  61  97 CALM      30.11R
ROANOKE        CLOUDY    66  58  75 CALM      30.11R
BLACKSBURG     PTCLDY    59  57  92 CALM      30.17R
DUBLIN*        PTCLDY    62  55  75 W3        30.16R
MARION*        CLOUDY    60  57  89 CALM      30.21R
HILLSVILLE*    CLOUDY    61  53  73 CALM      30.16R
RICHLANDS*     CLOUDY    61  57  87 W6        30.21R
WISE*          CLOUDY    59  54  82 CALM      30.22R
ABINGDON*      MOCLDY    66  58  74 N6        30.17S
$$

MDZ021>025-VAZ099-100-251200-
SOUTHERN MARYLAND AND THE DELMARVA PENINSULA

CITY           SKY/WX    TMP DP  RH WIND       PRES   REMARKS
PATUXENT RIVER PTSUNNY   70  63  78 CALM      30.00R
BAY BRIDGE APT PTSUNNY   75  63  64 NW5       30.00R
LEONARDTOWN    PTSUNNY   66  63  88 CALM      30.02R
DOVER          SUNNY     70  70 100 CALM      29.98R
GEORGETOWN     SUNNY     69  66  90 CALM      30.00R
EASTON         MOSUNNY   72  66  83 CALM      30.03R
CAMBRIDGE      CLOUDY    68  66  94 CALM      30.00R
SALISBURY      SUNNY     71  68  90 CALM      29.99R
OCEAN CITY     SUNNY     71  66  84 NW7       29.99R
WALLOPS ISLAND SUNNY     74  72  93 NW5       29.99R
ACCOMACK*      PTSUNNY   76  73  91 W3        29.99R
$$

NCZ012>017-030>032-251200-
NORTH CENTRAL AND EASTERN NORTH CAROLINA

CITY           SKY/WX    TMP DP  RH WIND       PRES   REMARKS
ROANOKE RAPIDS PTSUNNY   70  70 100 S3        30.03R
RALEIGH        CLOUDY    70  70 100 SW3       30.05R
ELIZABETH CITY CLOUDY    73  73 100 W7        30.02R
AHOSKIE*         N/A     69  69  99 CALM      30.03R FOG
EDENTON*       CLOUDY    75  72  90 CALM      30.03R
CURRITUCK*     CLOUDY   N/A N/A N/A W8        30.02R
KILL DEVIL HLS CLOUDY    75  75 100 W5        29.99S
MANTEO         CLOUDY    74  73  96 NW3       30.01R
CAPE HATTERAS  CLOUDY    77  74  90 SW9       30.02R FOG
TARBORO*       NOT AVBL
GOLDSBORO      CLOUDY    73  73 100 CALM      30.01S
WASHINGTON     CLOUDY   N/A N/A N/A CALM      30.03S
GREENVILLE     CLOUDY    72  72 100 CALM      30.05R
NEW BERN       CLOUDY    75  75 100 CALM      30.03S
WILMINGTON     CLOUDY    77  75  93 SW6       30.03S
$$

VAZ048-251200-
ELSEWHERE

CITY           SKY/WX    TMP DP  RH WIND       PRES   REMARKS
HARRISBURG PA  MOSUNNY   69  61  75 CALM      29.99R
BALTIMORE      PTSUNNY   69  63  81 CALM      30.00R
ANNAPOLIS      PTSUNNY   70  64  81 CALM      29.99R
ANDREWS AFB    MOSUNNY   68  62  82 CALM      30.01R
PHILADELPHIA   PTSUNNY   72  60  66 CALM      29.99R
HENDERSON NC   CLOUDY    66  66  98 CALM      30.04S
GREENSBORO     MOCLDY    70  66  87 N5        30.07R
ROCKY MOUNT    CLOUDY    71  71 100 CALM      30.03R
$$

VAZ100-251200-
MARINE

STATION/POSITION TIME  TEMP    WIND        PRES    WAVE   SWELL
                       AIR SEA DIR/SP/G            HT/PER HT/PER
                 (UTC) (F)     (DEG/KT/KT) (MB)    (FT/S) (FT/S)
BRANDYWINE LGT   1048   76      20/  8/  9 1015.6R
CAPE MAY NJ      1048   75 70   30/  2/  4 1014.9R
LEWES DE         1048   72 67  280/  5/  6 1015.2R
15NM E FENWICK I 1050   70 66  280/  4/  6 1015.5R   3/ 7   3/ 7
WACHAPREAGUE VA  1048   76 80  270/  2/  5 1015.2R
THOMAS POINT MD  1100   73 77  300/  5/  6   N/A
GOOSES REEF MD   1100   76 78  360/  8/  8 1016.6
COVE POINT MD    1048   73     310/  5/  6 1016.5R
SOLOMONS ISLAND  1048   73 78  310/  3/  4   N/A
BISHOPS HEAD MD  1048   76 81  340/  5/  6 1015.8R
PINEY POINT MD   1048          360/  5/  6   N/A
POTOMAC MD       1100   77 78  350/  8/  8 1014.9    1/ 3
CAMBRIDGE MD     1042   72 81              1016.4R
LEWISETTA VA     1048   76 79  320/  4/  5 1015.6R
RAPPAHANNOCK LGT 1048          300/ 13/ 14 1016.0R
STINGRAY PT      1100   76 78  330/ 10/ 12 1015.5
YORK RVR RNG VA  1048   76     280/  7/  8 1015.8R
YORKTOWN VA      1048   75 78  280/  4/  4 1015.2R
JAMESTOWN VA     1100   74 82  280/  6/ 10   N/A     0
DOMINION TERM VA 1048   75     250/  5/  7 1015.9R
KIPTOPEKE VA     1048      76  280/  8/ 12   N/A
CHES BAY BRIDGE  1048   74 76  260/  9/ 10 1015.5R
CAPE HENRY VA    1048   73     240/  7/  9   N/A
WILLOUBY STN VA  1048   75     250/  8/  8 1015.5R
S CRANEY ISL VA  1048   74     220/  2/  5 1015.7R
CAPE HENRY BUOY  1100      71                N/A     2/ 9
1ST LANDING BUOY 1100   75 76              1015.7    1/ 3
CAPE CHARLES BUO 1051      64                N/A     2/ 9
64NM E OF VA BCH 1050   73 72  280/  8/ 10 1015.9R   4/ 7   3/ 7
DUCK PIER NC     1048   75 60  270/  9/ 12 1015.6R
44100 DUCK FRF   1005      71                N/A     2/ 7
OREGON INLET NC  1036   76 78  260/  7/  9 1015.9R
HATTERAS NC      1048   76 78  230/  7/ 11 1016.4R
DIAMOND SHLS NC  1050   79 80  250/ 17/ 21 1016.0R   6/ 7   2/ 9
CAPE LOOKOUT NC  1100   79     240/  6/  9 1016.4R
$$




USA.gov is the U.S. government's official web portal to all federal, state and local government web resources and services.